Location: Az?znagar
(16.8373°N, 80.5091°E)
Time: 11:38:57
(UTC+00:00)

ASTRO E2 - Pass Details

Date: 04 December 2021
Orbit: 504 x 511 km, 31.4° (Epoch: 26 January)

Event Time Altitude Azimuth Distance (km) Brightness Sun altitude
Rises 00:06:17 0° 227° (SW) 2,602 6.0 -11.2°
Reaches altitude 10° 00:08:36 10° 219° (SW) 1,718 5.2 -10.6°
Maximum altitude 00:12:20 41° 149° (SSE) 745 4.0 -9.8°
Drops below altitude 10° 00:16:05 10° 78° (ENE) 1,718 6.3 -9.0°
Sets 00:18:24 0° 71° (ENE) 2,603 7.1 -8.5°
